Location: Hohe Wand Kleine Kanzel
(47.8330°N, 16.0170°E)
Time: 18:02:16
(UTC+02:00)

Courier 1B Rocket - Pass Details

Date: 09 August 2021
Orbit: 920 x 1202 km, 28.3° (Epoch: 23 September)

Event Time Altitude Azimuth Distance (km) Brightness Sun altitude
Rises 00:48:03 0° 232° (SW) 4,002 - -26.2°
Reaches altitude 10° 00:52:20 10° 210° (SSW) 2,988 - -26.3°
Maximum altitude 00:56:08 15° 179° (S) 2,583 - -26.3°
Drops below altitude 10° 00:59:50 10° 147° (SSE) 2,879 - -26.3°
Sets 01:03:49 0° 125° (SE) 3,769 - -26.3°
